Regional Weather Roundup
Issued by NWS Green Bay, WI

Home | Current Version | Previous Version | Text Only | Print | Product List | Glossary On
Versions: 1 2 3 4 5 6 7 8 9 10 11 12 13 14 15 16 17 18 19 20 21 22 23 24 25 26 27 28 29 30 31 32 33 34 35 36 37 38 39 40 41 42 43 44 45 46 47 48 49 50
000
ASUS43 KGRB 041111
RWRGRB

NORTH-CENTRAL AND NORTHEAST WISCONSIN REGIONAL WEATHER ROUNDUP
NATIONAL WEATHER SERVICE GREEN BAY WI
600 AM CDT TUE AUG 04 2015

WIZ005-009-010>012-018-019-041200-
NORTH CENTRAL WISCONSIN

CITY           SKY/WX    TMP DP  RH WIND       PRES   REMARKS
IRONWOOD       CLEAR     54  52  94 W6        29.88S
MANITOWISH WTR MOCLDY    53  53 100 W3        29.91R
ARBOR VITAE    MOCLDY    57  55  92 CALM      29.92R
EAGLE RIVER    MOCLDY    54  54 100 W3        29.90S
LAND O LAKES   CLOUDY    56  55  95 W5        29.91R
RHINELANDER    PTCLDY    53  51  93 W6        29.92R
PHILLIPS       CLEAR     51  51 100 CALM      29.93R
ANTIGO         MOCLDY    54  54  98 W5        29.92S
TOMAHAWK       CLEAR     52  51  94 CALM      29.93R
MERRILL        NOT AVBL
$$

WIZ013-073-041200-
NORTHEAST WISCONSIN

CITY           SKY/WX    TMP DP  RH WIND       PRES   REMARKS
IRON MOUNTAIN  MOCLDY    57  54  89 NW5       29.86S
MARINETTE      CLEAR     57  52  82 W3        29.87R
OCONTO         CLEAR     52  52 100 CALM      29.88R
$$

WIZ017-030-035>037-045-041200-
CENTRAL WISCONSIN

CITY           SKY/WX    TMP DP  RH WIND       PRES   REMARKS
MEDFORD        CLEAR     51  50  97 W3        29.94R
WAUSAU         CLEAR     58  54  86 NW5       29.92R
MOSINEE        CLEAR     55  55 100 NW6       29.90F
MARSHFIELD     CLEAR     55  50  83 NW8       29.93S
WISC RAPIDS    CLEAR     57  52  83 NW7       29.94R
STEVENS POINT  CLEAR     56  53  89 NW6       29.93R
WAUPACA        CLEAR     58  55  91 NW3       29.91R
SHAWANO        MOCLDY    57  55  94 W3        29.90R
CLINTONVILLE   CLEAR     54  52  94 W3        29.90R
$$

WIZ038-039-048-051-041200-
FOX VALLEY

CITY           SKY/WX    TMP DP  RH WIND       PRES   REMARKS
NWS GREEN BAY  CLEAR     55  54  96 CALM      29.89S
APPLETON       MOCLDY    54  52  94 VRB3      29.90F
OSHKOSH        CLEAR     59  51  75 W6        29.90R
FOND DU LAC    CLEAR     56  52  86 SW5       29.91R
$$

WIZ022-050-052-041200-
EAST CENTRAL WISCONSIN

CITY           SKY/WX    TMP DP  RH WIND       PRES   REMARKS
STURGEON BAY   MOCLDY    61  54  77 NW5       29.90R
MANITOWOC      CLOUDY    62  56  80 MISG      29.90R
SHEBOYGAN      PTCLDY    57  54  89 CALM      29.90R
$$

LMZ563-521-522-541>543-041200-
LAKESHORE

STATION/POSITION TIME  TEMP    WIND        PRES    VSBY  WAVE
                       AIR SEA DIR/SP/G                  HT/PER
                 (UTC) (F)     (DEG/KT/KT) (MB)    (MI)  (FT/S)
SHEBOYGAN LKSHOR 1100   63     270/  8/ 10 1012.6R
KEWAUNEE LKSHORE 1000   59     310/  3/  5 1011.2R
ALGOMA MARINA    1012             CALM       N/A
NORTHPORT PIER   1000   63     310/ 12/ 16 1011.2R
N MID LAKE BUOY  1050   62 67  300/ 14/ 16 1010.3R         1/ 3
S GREEN BAY BUOY 1100   63 71  270/ 10/ 12 1013.3R
SISTER BAY LKSHO 1003   63     310/ 12/ 14   N/A
CHAMBERS ISLAND  1000   62     250/  4/  9 1011.2S
MENOMINEE LKSHOR 1000   61     280/  5/ 10 1012.1R
$$


USA.gov is the U.S. government's official web portal to all federal, state and local government web resources and services.